< < Back
Terminal Aerodrome Forecast


Current Version              Previous Versions:   1  2  3  4  5  6  7  8  9  

Terminal Aerodrome Forecast

225
FTUS42 KFFC 311120
TAFMCN
TAF
KMCN 311120Z 3112/0112 04003KT P6SM FEW200
     FM311800 16003KT P6SM BKN200
     FM010200 00000KT P6SM BKN150
     FM010900 00000KT P6SM BKN020=

Latest METAR

312
SAUS80 KWBC 010658
MTRMCN
METAR KMCN 010653Z AUTO 13003KT 10SM CLR 04/M01 A3028 RMK AO2 SLP252
T00391011 TSNO


USA.gov is the U.S. government's official web portal to all federal, state and local government web resources and services.